Location: Horndon on the Hill
(51.5167°N, 0.4000°E)
Time: 02:49:35
(UTC+00:00)

Daily predictions for brighter satellites

Satellite Brightness Start Highest point End
(mag) Time Altitude Azimuth Time Altitude Azimuth Time Altitude Azimuth
Cosmos 2228 Rocket 3.9 00:05:20 28° SE 00:07:07 41° E 00:11:21 10° NNE
Meteor 1-12 Rocket 4.4 00:02:20 10° N 00:08:14 76° ENE 00:11:47 26° SSE
Cosmos 2082 Rocket 3.2 00:07:01 24° SSE 00:09:26 33° ESE 00:14:30 10° NE
Helios 1A Rocket 4.3 00:07:43 17° ESE 00:10:07 31° ENE 00:13:34 10° N
Cosmos 1833 Rocket 2.7 00:08:10 26° SSW 00:11:24 86° WNW 00:17:04 10° NNE
BREEZE-M DEB (TANK) 3.8 00:13:11 33° SSE 00:13:11 33° SSE 00:17:38 10° ESE
Cosmos 724 4.4 00:12:03 30° S 00:14:51 57° ESE 00:20:34 10° NE
Cosmos 1908 3.7 00:12:00 10° NNW 00:15:24 42° W 00:16:07 37° SW
PSLV R/B 4.0 00:20:06 10° N 00:24:36 58° WNW 00:26:44 29° SW
USA 267 3.2 00:18:39 10° ENE 00:25:12 70° SE 00:30:21 17° SW
Cosmos 1140 Rocket 3.6 00:22:27 28° SW 00:25:19 75° WNW 00:30:34 10° NNE
Cosmos 1441 Rocket 3.4 00:22:51 10° NNW 00:26:21 48° W 00:27:04 41° SW
NOSS 3-3 (A) 4.2 00:21:40 13° WSW 00:26:46 67° NW 00:33:29 10° NE
Cosmos 1707 3.7 00:26:20 27° WSW 00:27:38 36° WNW 00:31:03 10° N
Cosmos 1674 4.2 00:26:29 19° WSW 00:27:51 24° WNW 00:30:45 10° NNW
Cosmos 1455 4.2 00:26:13 10° NNE 00:28:51 20° ENE 00:31:18 11° ESE
Cosmos 1869 Rocket 4.2 00:25:37 10° NNW 00:29:44 42° W 00:31:14 31° SW
Iridium 51 4.5 00:28:15 37° S 00:29:55 86° W 00:34:24 10° N
Cosmos 1733 Rocket 3.0 00:25:37 10° N 00:29:58 79° E 00:31:54 32° SSE
Resurs 1-4 Rocket 4.4 00:29:04 10° NE 00:31:45 14° E 00:34:25 10° ESE
GP-B 3.3 00:28:52 10° N 00:33:13 62° W 00:35:02 33° SSW
Cosmos 1400 Rocket 2.8 00:32:16 38° S 00:33:39 70° E 00:37:38 10° NNE
H-2A R/B 2.5 00:32:30 10° N 00:36:52 55° WNW 00:38:59 28° SW
Cosmos 381 Rocket 4.5 00:30:55 10° NNW 00:37:23 87° WSW 00:41:55 21° SSE
Cosmos 2278 4.4 00:34:12 10° NNW 00:39:49 53° NE 00:45:24 10° SE
NOSS 3-4 (A) 3.9 00:34:44 10° NW 00:41:24 58° SW 00:47:10 18° SSE
NOSS 3-4 (C) 3.9 00:34:50 10° NW 00:41:29 58° SW 00:47:19 18° SSE
Cosmos 1346 Rocket 2.8 00:39:40 10° N 00:43:34 72° ENE 00:45:17 31° SSE
Cosmos 468 Rocket 4.0 00:41:04 10° NNW 00:46:24 86° WSW 00:49:48 23° SSE
Cosmos 2315 Rocket 4.4 00:40:52 10° NNW 00:46:56 53° W 00:50:26 25° SSW
Cosmos 2251 Rocket 3.5 00:44:26 28° SSW 00:47:18 79° WNW 00:52:37 10° NNE
Cosmos 407 Rocket 3.6 00:44:27 26° SW 00:47:26 73° WNW 00:52:42 10° NNE
Cosmos 1954 Rocket 4.3 00:48:42 27° S 00:51:26 57° ESE 00:56:39 10° NNE
Okean 2 4.4 00:49:49 22° SE 00:51:43 35° E 00:55:22 10° NNE
Cosmos 2333 Rocket 4.1 00:47:17 10° NNW 00:52:19 30° NE 00:57:21 10° ESE
Cosmos 1190 Rocket 4.0 00:51:10 29° SSW 00:53:56 77° ESE 00:59:15 10° NNE
Meteor 1-4 Rocket 4.0 00:53:08 18° ESE 00:54:05 20° E 00:56:22 10° NE
CZ-2C R/B 4.2 00:49:48 10° ESE 00:54:17 31° ENE 00:58:48 10° N
Cosmos 1763 Rocket 3.8 00:50:35 10° NNW 00:55:44 53° WSW 00:58:19 28° S
Cosmos 2285 Rocket 4.3 00:51:49 20° SW 00:56:12 60° WNW 01:02:30 10° NNE
Cosmos 2322 Rocket 3.5 00:52:06 10° NNW 00:57:25 40° NE 01:02:43 10° ESE
Cosmos 1300 3.0 00:55:02 10° NNW 00:58:28 45° W 00:59:22 36° SW
USA 234 3.4 00:56:37 10° SSE 01:02:56 49° SW 01:09:16 10° WNW
Cosmos 1953 2.7 00:59:08 10° N 01:03:01 58° ENE 01:05:20 22° SSE
SL-14 R/B 3.4 01:01:39 33° SW 01:03:10 60° WNW 01:06:59 10° N
SL-8 R/B 4.0 00:59:03 10° W 01:03:32 42° SSW 01:08:02 10° SE
Cosmos 1697 Rocket 4.0 00:59:42 10° NW 01:03:57 22° WSW 01:05:45 19° SW
Cosmos 1862 Rocket 3.5 01:04:13 31° SSW 01:06:13 76° W 01:10:34 10° N
Aureole 3 2.6 01:09:14 46° SW 01:09:57 68° WNW 01:12:58 10° N
Cosmos 1980 Rocket 2.8 01:06:08 10° NW 01:11:22 39° WSW 01:14:01 25° SSW
Nadezhda 1 Rocket 4.2 01:06:20 10° N 01:12:46 73° ENE 01:18:17 14° SSE
Cosmos 540 Rocket 3.8 01:09:12 10° NNW 01:14:11 49° WSW 01:16:52 25° S
Cosmos 1758 4.5 01:14:57 10° NNW 01:18:14 27° W 01:19:20 23° WSW
ADEOS II 4.0 01:15:09 10° NE 01:19:10 22° E 01:23:08 10° SE
Cosmos 1607 4.4 01:14:39 14° WSW 01:20:19 61° NW 01:26:47 10° NE
MOZ.5/SAFIR/RUBIN 5/SL-8 3.8 01:18:21 19° SSE 01:21:44 90° N 01:26:29 10° NNW
Cosmos 2369 4.2 01:17:10 10° NW 01:22:29 41° WSW 01:25:30 23° SSW
COSMOS 2406 3.2 01:19:32 24° SSW 01:23:12 88° ESE 01:29:00 10° NNE
Lacrosse 5 rocket 1.1 01:19:35 10° WNW 01:23:44 74° SW 01:27:42 10° SE
Cosmos 1356 Rocket 3.6 01:22:17 28° SW 01:24:15 60° WNW 01:28:21 10° N
IDEFIX/ARIANE 42P 3.4 01:19:28 10° NNE 01:24:30 44° E 01:28:28 16° SSE
Meteor 1-16 Rocket 4.4 01:24:30 10° NNW 01:30:03 58° W 01:33:51 21° SSW
Cosmos 1707 Rocket 4.5 01:28:29 21° SW 01:30:52 38° WNW 01:35:03 10° N
Okean 1-7 3.0 01:30:04 26° SSW 01:32:27 80° WNW 01:36:48 10° N
Okean 3 3.9 01:34:53 24° SW 01:36:59 46° WNW 01:40:58 10° N
Cosmos 1238 4.5 01:34:12 10° N 01:38:16 86° W 01:40:12 24° S
ATLAS 2AS CENTAUR R/B 3.7 01:31:55 10° NW 01:38:42 50° NNE 01:45:12 10° ESE
Cosmos 1315 Rocket 2.7 01:39:37 24° S 01:41:53 79° E 01:45:49 10° NNE
SL-16 R/B 2.1 01:36:22 10° NNW 01:42:05 80° WSW 01:47:45 10° SSE
CZ-2C R/B 4.4 01:37:27 10° NNE 01:42:54 39° E 01:48:15 10° SSE
SJ 16-02 3.2 01:39:56 10° SSE 01:43:21 23° E 01:46:47 10° NE
Helios 1A Rocket 3.9 01:43:06 22° SW 01:44:29 28° W 01:47:51 10° NW
Cosmos 1850 Rocket 4.4 01:46:14 18° S 01:50:07 59° ESE 01:55:18 10° NNE
Orbus 7S? 4.2 01:48:29 10° W 01:51:11 33° NNW 01:53:47 10° NE
Cosmos 2082 Rocket 2.7 01:48:50 16° SW 01:53:19 53° NW 01:58:56 10° NNE
Cosmos 2219 Rocket 3.5 01:49:43 10° NNW 01:55:08 44° NE 02:00:31 10° ESE
Cosmos 1709 Rocket 4.2 01:49:42 14° S 01:55:12 74° E 02:01:35 10° NNE
Cosmos 1741 Rocket 4.3 01:51:18 17° S 01:55:13 61° ESE 02:00:26 10° NNE
Cosmos 1782 Rocket 3.5 01:51:39 10° NNW 01:56:03 78° W 01:59:39 15° S
Cosmos 1908 Rocket 4.1 01:52:31 10° NNW 01:56:43 43° W 01:59:24 20° SSW
SL-16 R/B 3.2 01:51:30 10° SE 01:57:37 59° ENE 02:03:46 10° NNW
CZ-2D R/B 2.6 01:52:27 10° NNE 01:57:54 61° ESE 02:02:42 13° S
Cosmos 2237 4.4 01:56:14 10° NW 02:01:49 53° WSW 02:07:21 10° S
Cosmos 1455 2.8 02:00:17 10° NNW 02:03:26 33° W 02:05:03 21° SW
Cosmos 2360 Rocket 2.3 01:58:26 10° NNW 02:04:09 81° ENE 02:09:51 10° SSE
Meteor 1-28 Rocket 4.0 02:01:05 10° SE 02:04:31 47° ENE 02:07:57 10° N
Cosmos 968 Rocket 3.9 02:02:10 14° S 02:06:22 54° ESE 02:11:23 10° NNE
Genesis I 4.4 02:05:37 15° S 02:07:52 27° ESE 02:10:56 10° ENE
USA 267 3.7 02:01:46 10° ENE 02:08:13 65° NNW 02:14:41 10° W
RESURS DK-1 2.9 02:04:17 10° NNW 02:08:20 59° NE 02:12:20 10° SE
MSX 3.9 02:05:07 10° NNE 02:10:54 85° ESE 02:16:00 13° SSW
Cosmos 841 Rocket 4.2 02:07:36 10° NW 02:12:22 37° WSW 02:16:19 14° SSW
Resurs 1-4 Rocket 2.1 02:07:06 10° NNE 02:12:24 81° ESE 02:17:03 13° SSW
H-2A R/B 3.4 02:12:47 10° N 02:16:47 67° WNW 02:19:49 16° SSW
FENGYUN 3A 4.1 02:16:27 10° NNE 02:21:48 61° ESE 02:27:06 10° S
COBE Rocket 4.1 02:18:40 10° N 02:23:26 59° WNW 02:27:39 14° SSW
Cosmos 2278 4.5 02:18:41 10° NW 02:23:44 33° WSW 02:28:37 11° SSW
Meteor 1-4 Rocket 3.7 02:25:17 14° WSW 02:26:59 22° WNW 02:29:26 10° NNW
SL-24 R/B 4.4 02:29:11 10° S 02:34:04 85° W 02:38:56 10° N
CZ-2C R/B 2.9 02:29:24 10° S 02:34:23 47° W 02:39:24 10° NNW
Cosmos 2242 Rocket 3.6 02:30:52 12° SSW 02:34:54 72° WNW 02:39:25 10° N
Cosmos 2333 Rocket 2.2 02:31:24 10° NW 02:37:05 68° WSW 02:42:46 10° SSE
Sich 1 Rocket 4.2 02:32:50 10° N 02:37:19 60° ENE 02:41:44 10° SSE
Cosmos 2098 Rocket 3.6 02:32:41 10° NNW 02:37:43 79° W 02:43:43 10° S
Timation 1 Rocket 4.4 02:32:20 12° SSW 02:37:50 89° ESE 02:43:50 10° NNE
Cosmos 1953 4.2 02:36:10 10° NW 02:38:23 15° W 02:40:27 10° WSW
Cosmos 1825 4.2 02:35:40 10° SE 02:38:25 23° E 02:41:10 10° NE
Cosmos 2151 Rocket 4.0 02:35:22 10° N 02:39:52 68° ENE 02:44:18 10° SSE
Cosmos 1814 Rocket 4.1 02:35:48 10° NNW 02:40:53 55° WSW 02:46:00 10° S
Cosmos 2322 Rocket 2.5 02:36:11 10° NW 02:41:35 46° WSW 02:46:57 10° S
Cosmos 2292 4.3 02:38:35 10° N 02:41:41 87° W 02:45:16 10° S
SL-27 R/B 2.0 02:40:26 12° SSW 02:42:54 68° ESE 02:45:43 10° NNE
Cosmos 1892 4.2 02:41:21 10° SSE 02:44:28 30° E 02:47:36 10° NNE
NPP 4.2 02:41:44 10° N 02:46:55 48° WNW 02:52:03 10° SW
Cosmos 1242 Rocket 3.0 02:44:54 13° SW 02:47:05 32° WNW 02:49:45 10° N
Meteor 2-5 Rocket 3.9 02:43:48 10° S 02:49:44 86° E 02:55:44 10° NNE
SL-4 R/B 4.1 02:48:07 10° S 02:51:12 19° SE 02:54:22 10° E
Okean 2 Rocket 3.2 02:48:21 10° N 02:52:46 82° E 02:57:10 10° SSE
Cosmos 1408 3.0 02:53:36 11° SW 02:56:10 33° WNW 02:58:56 10° N
Cosmos 2074 Rocket 4.2 02:50:50 10° S 02:57:02 76° E 03:03:16 10° NNE
Cosmos 1674 Rocket 4.0 02:54:06 10° S 02:58:30 64° E 03:02:54 10° NNE
Cosmos 1570 Rocket 4.1 02:53:26 10° NNW 02:58:46 85° WSW 03:04:06 10° SSE
ADEOS II 2.2 02:54:02 10° N 02:59:15 67° WNW 03:04:27 10° SSW
Lacrosse 5 rocket 2.8 02:58:58 10° W 03:01:26 16° SW 03:03:52 10° SSW
Cosmos 2208 Rocket 4.2 02:56:35 10° NNW 03:01:56 81° ENE 03:07:10 10° SSE
IDEFIX/ARIANE 42P 3.6 02:59:12 10° N 03:03:55 34° WNW 03:08:38 10° SW
Cosmos 1833 4.3 02:58:53 10° SSW 03:04:33 82° ESE 03:10:14 10° NNE
ALOS 2.3 02:59:58 10° NNE 03:04:39 89° SE 03:09:16 10° SSW
Cosmos 405 Rocket 2.5 03:08:28 10° NNW 03:12:03 72° W 03:15:40 10° S
Cosmos 2184 Rocket 4.1 03:08:59 10° S 03:15:13 86° W 03:21:34 10° N
Cosmos 1378 Rocket 3.5 03:11:24 10° SSW 03:15:40 76° W 03:20:00 10° N
